Flag for U.S.A. Weather past 2 weeks in Glendale, Arizona, U.S.A.

Now
46 °F

Clear.


Feels Like: 42 °F
Forecast: 41 / 62 °F
Wind: 7 mph from Northeast

Location: Phoenix-Deer Valley Municipal Airport

Current Time: Dec 19, 2014 at 3:27:40 AM

Latest Report: Dec 19, 2014 at 2:53 AM


Visibility: 10 mi

Pressure: 30.15 "Hg

Humidity: 79%

Dew point: 40 °F

Location of GlendaleLocation

Historic Weather in Glendale — Graph

°F

Glendale temperature yesterday

Maximum temperature yesterday: 58 °F (at 3:53 PM)
Minimum temperature yesterday: 45 °F (at 11:53 PM)
Average temperature yesterday: 51 °F

Past Weeks' High & Low Weather Summary

 TemperatureHumidityPressure
High77 °F (Dec 9, 2:53 PM)100% (Dec 4, 6:53 AM)30.17 "Hg (Dec 4, 6:53 AM)
Low41 °F (Dec 14, 7:53 AM)26% (Dec 8, 2:53 PM)29.87 "Hg (Dec 10, 3:53 PM)
Average58 °F66%30.02 "Hg
* Reported Dec 4 1:53 AM — Dec 19 1:53 AM, Glendale, Weather by CustomWeather, © 2014

Note: Actual official high and low records may vary slightly from our data, if they occured in-between our weather recording intervals... More about our weather records

Advertising

Glendale weather history for previous 24 hours

 ConditionsComfort  
Time TempWeatherWind HumidityBarometerVisibility
1:53 AM
Dec 19
46 °FClear.5 mph83%30.14 "Hg10 mi
12:53 AM46 °FClear.7 mph86%30.15 "Hg10 mi
11:53 PM
Dec 18
45 °FClear.No wind90%30.16 "Hg10 mi
10:53 PM47 °FClear.3 mph86%30.16 "Hg10 mi
9:53 PM47 °FClear.No wind86%30.15 "Hg10 mi
8:53 PM49 °FClear.No wind80%30.14 "Hg10 mi
7:53 PM50 °FClear.No wind77%30.12 "Hg10 mi
6:53 PM53 °FClear.No wind66%30.11 "Hg10 mi
5:53 PM55 °FClear.5 mph59%30.08 "Hg10 mi
4:53 PM58 °FSunny.7 mph51%30.06 "Hg10 mi
3:53 PM58 °FSunny.3 mph50%30.06 "Hg10 mi
2:53 PM57 °FSunny.No wind53%30.05 "Hg10 mi
1:53 PM56 °FSunny.3 mph62%30.06 "Hg10 mi
12:53 PM53 °FLight rain. Scattered clouds.3 mph74%30.08 "Hg10 mi
11:53 AM52 °FLight rain. More clouds than sun.7 mph77%30.11 "Hg10 mi
10:53 AM53 °FMore clouds than sun.9 mph69%30.13 "Hg10 mi
9:53 AM52 °FMostly cloudy.3 mph77%30.12 "Hg10 mi
8:53 AM51 °FOvercast.5 mph74%30.10 "Hg10 mi
7:53 AM49 °FMostly cloudy.3 mph84%30.09 "Hg10 mi
6:53 AM49 °FMostly cloudy.3 mph84%30.08 "Hg10 mi
5:53 AM49 °FMostly cloudy.6 mph86%30.06 "Hg10 mi
4:53 AM49 °FMostly cloudy.5 mph86%30.06 "Hg10 mi
3:53 AM50 °FPassing clouds.3 mph83%30.07 "Hg10 mi
Weather by CustomWeather, © 2014

See weather overviewHow to use our weather pages